User: anonymous   Login
Location: ??????
(41.3164°N, 22.6615°E)
Time: 07:51:44
(UTC+00:00)
Language:

AO-91 - Orbit

View from above orbital plane
View from above orbital plane
View from above satellite
View from above satellite

Ground track
Ground track

The orbit data is extracted from the following two-line orbital elements,

1 43017U 17073E   22177.69316774  .00002291  00000-0  17534-3 0  9992
2 43017  97.6750  71.5098 0249050 157.2662 203.9813 14.81442109248486
Epoch (UTC): 26 June 2022 16:38:09
Eccentricity: 0.0249050
inclination: 97.6750°
perigee height: 450 km
apogee height: 799 km
right ascension of ascending node: 71.5098°
argument of perigee: 157.2662°
revolutions per day: 14.81442109
mean anomaly at epoch: 203.9813°
orbit number at epoch: 24848

The dashed part of the orbit path shows where the satellite is in the earth's shadow,  

DLR